Location: Moena
(46.3667°N, 11.6500°E)
Time: 10:27:52
(UTC+00:00)

GP-B - Pass Details

Date: 20 June 2021
Orbit: 631 x 635 km, 89.8° (Epoch: 28 July)

Event Time Altitude Azimuth Distance (km) Brightness Sun altitude
Rises 00:34:34 0° 344° (NNW) 2,943 7.5 -17.9°
Reaches altitude 10° 00:37:40 10° 321° (NW) 2,028 6.1 -17.7°
Maximum altitude 00:40:06 15° 288° (WNW) 1,733 5.3 -17.6°
Enters shadow 00:41:52 12° 262° (W) 1,890 5.3 -17.5°
